Florala, AL

7:08 PM CDT on July 27, 2017 (GMT -0500)
Florala

Weather History for K0J4 - August, 2013

Change the Weather History Date:

Sunday, August 18, 2013

  Actual Average (KCEW) Record (KCEW)
Temperature  
Mean Temperature 76 °F -  
Max Temperature 84 °F 92 °F 100 °F (1990)
Min Temperature 69 °F 70 °F 63 °F (2004)
Cooling Degree Days 12    
Growing Degree Days 26 (Base 50)    
Moisture  
Dew Point 72 °F    
Average Humidity 93    
Maximum Humidity 100    
Minimum Humidity 72    
Precipitation  
Precipitation 1.15 in - - ()
Sea Level Pressure  
Sea Level Pressure 30.07 in    
Wind  
Wind Speed 5 mph (ESE)    
Max Wind Speed 12 mph    
Max Gust Speed 17 mph    
Visibility 8 miles    
Events Fog , Rain , Thunderstorm    
Averages and records for this station are not official NWS values.
T = Trace of Precipitation, MM = Missing Value Source: NWS Daily Summary

Daily Weather History Graph

Daily Weather History Graph

Search for Another Location

Airport or City:

Trip Planner

Search our weather history database for the weather conditions in past years. The results will help you decide how hot, cold, wet, or windy it might be!

Date:

Astronomy

Aug. 18, 2013 Rise Set
Actual Time 6:13 AM CDT 7:24 PM CDT
Civil Twilight 5:47 AM CDT 7:49 PM CDT
Nautical Twilight 5:17 AM CDT 8:19 PM CDT
Astronomical Twilight 4:46 AM CDT 8:50 PM CDT
Moon 5:26 PM CDT (8/18) 3:27 AM CDT (8/18)
Length of Visible Light 14h 01m
Length of Day
13h 11m
Waxing Gibbous, 92% of the Moon is Illuminated
Aug 18
Waxing Gibbous
Aug 20
Full
Aug 28
Last Quarter
Sep 5
New
Sep 12
First Quarter

Hourly Weather History & Observations

Time (CDT) Temp. Heat Index Dew Point Humidity Pressure Visibility Wind Dir Wind Speed Gust Speed Precip Events Conditions
12:25 AM 69.8 °F - 69.8 °F 100% 30.02 in 10.0 mi East 4.6 mph - N/A   Scattered Clouds
12:32 AM 69.8 °F - 69.8 °F 100% 30.02 in 10.0 mi ENE 5.8 mph - N/A   Mostly Cloudy
12:39 AM 69.8 °F - 69.8 °F 100% 30.03 in 10.0 mi ENE 5.8 mph - N/A   Mostly Cloudy
1:58 AM 71.1 °F - 69.1 °F 93% 30.04 in 10.0 mi East 4.6 mph - N/A   Overcast
2:22 AM 71.6 °F - 69.8 °F 94% 30.08 in 10.0 mi ENE 3.5 mph - N/A   Overcast
2:51 AM 71.6 °F - 69.8 °F 94% 30.08 in 8.0 mi ENE 5.8 mph - 0.01 in   Overcast
2:58 AM 70.0 °F - 69.1 °F 97% 30.06 in 6.0 mi East 6.9 mph - 0.02 in   Overcast
3:16 AM 71.6 °F - 69.8 °F 94% 30.05 in 8.0 mi East 5.8 mph - 0.01 in Rain Light Rain
3:58 AM 71.1 °F - 69.1 °F 93% 29.97 in 6.0 mi ENE 6.9 mph - 0.08 in   Overcast
4:58 AM 71.1 °F - 70.0 °F 96% 29.99 in 9.0 mi East 3.5 mph - 0.07 in Rain Light Rain
5:57 AM 71.1 °F - 70.0 °F 96% 30.07 in 8.0 mi ENE 4.6 mph - 0.04 in Rain Light Rain
6:58 AM 71.1 °F - 70.0 °F 96% 30.03 in 10.0 mi Variable 3.5 mph - 0.07 in Rain Light Rain
7:43 AM 71.6 °F - 69.8 °F 94% 30.04 in 6.0 mi ESE 6.9 mph - 0.09 in Rain Light Rain
7:58 AM 71.1 °F - 70.0 °F 96% 30.02 in 7.0 mi SE 6.9 mph - 0.10 in Rain Light Rain
8:58 AM 73.0 °F - 71.1 °F 93% 30.10 in 10.0 mi ESE 3.5 mph - 0.03 in   Overcast
9:58 AM 75.0 °F - 73.0 °F 94% 30.19 in 10.0 mi East 4.6 mph - N/A   Overcast
10:58 AM 75.9 °F - 73.9 °F 94% 30.14 in 9.0 mi East 4.6 mph - N/A   Overcast
11:21 AM 78.8 °F - 75.2 °F 89% 30.15 in 10.0 mi ESE 5.8 mph - N/A   Overcast
11:47 AM 80.6 °F 86.2 °F 75.2 °F 84% 30.17 in 10.0 mi Calm Calm - N/A   Mostly Cloudy
11:58 AM 80.1 °F 85.1 °F 75.0 °F 85% 30.13 in 10.0 mi SE 3.5 mph - N/A   Mostly Cloudy
12:12 PM 82.4 °F 90.9 °F 77.0 °F 84% 30.15 in 10.0 mi Calm Calm - N/A   Scattered Clouds
12:16 PM 82.4 °F 89.5 °F 75.2 °F 79% 30.15 in 10.0 mi Variable 4.6 mph - N/A   Mostly Cloudy
12:58 PM 84.0 °F 92.6 °F 75.9 °F 76% 30.12 in 10.0 mi SSE 4.6 mph - N/A   Scattered Clouds
1:58 PM 84.0 °F 91.2 °F 73.9 °F 72% 30.12 in 10.0 mi SSE 8.1 mph - 0.00 in   Scattered Clouds
2:58 PM 80.1 °F 85.1 °F 75.0 °F 85% 30.04 in 10.0 mi ESE 4.6 mph - 0.00 in Rain Light Rain
3:09 PM 78.8 °F - 75.2 °F 89% 30.06 in 1.8 mi SSE 11.5 mph 17.3 mph 0.09 in Rain Light Rain
3:14 PM 77.0 °F - 73.4 °F 89% 30.05 in 0.8 mi South 10.4 mph - 0.17 in   Overcast
3:19 PM 75.2 °F - 73.4 °F 94% 30.01 in 0.5 mi Variable 6.9 mph 16.1 mph 0.33 in Fog Fog
3:25 PM 75.2 °F - 73.4 °F 94% 29.96 in 0.2 mi SSW 10.4 mph 16.1 mph 0.51 in Fog , Rain , Thunderstorm Light Thunderstorms and Rain
3:40 PM 75.2 °F - 73.4 °F 94% - 1.0 mi ESE 6.9 mph - 0.67 in Thunderstorm Overcast
3:44 PM 75.2 °F - 73.4 °F 94% - 2.0 mi SE 5.8 mph - 0.67 in   Overcast
3:48 PM 75.2 °F - 73.4 °F 94% - 8.0 mi ESE 8.1 mph - 0.67 in   Overcast
3:58 PM 75.0 °F - 73.0 °F 94% - 10.0 mi ESE 8.1 mph 17.3 mph 0.67 in   Mostly Cloudy
4:30 PM 75.2 °F - 73.4 °F 94% - 10.0 mi ESE 9.2 mph - 0.03 in   Mostly Cloudy
4:48 PM 73.4 °F - 71.6 °F 94% - 10.0 mi SE 6.9 mph - 0.03 in   Mostly Cloudy
4:58 PM 73.9 °F - 72.0 °F 93% - 5.0 mi ESE 6.9 mph - 0.05 in   Mostly Cloudy
5:21 PM 73.4 °F - 71.6 °F 94% - 10.0 mi ESE 5.8 mph - 0.01 in   Mostly Cloudy
5:58 PM 73.9 °F - 72.0 °F 93% - 10.0 mi ESE 4.6 mph - 0.01 in   Scattered Clouds
6:58 PM 73.9 °F - 72.0 °F 93% - 10.0 mi Variable 4.6 mph - N/A   Partly Cloudy
7:58 PM 73.0 °F - 71.1 °F 93% - 10.0 mi East 4.6 mph - N/A   Clear
8:02 PM 73.4 °F - 71.6 °F 94% - 10.0 mi East 4.6 mph - N/A   Partly Cloudy
8:58 PM 73.0 °F - 71.1 °F 93% - 10.0 mi Calm Calm - 0.01 in Rain Light Rain
9:29 PM 71.6 °F - 71.6 °F 100% - 10.0 mi WNW 3.5 mph - 0.00 in   Partly Cloudy
9:58 PM 72.0 °F - 71.1 °F 97% - 10.0 mi Calm Calm - 0.00 in   Clear
10:04 PM 71.6 °F - 71.6 °F 100% - 10.0 mi Calm Calm - N/A   Partly Cloudy
10:17 PM 71.6 °F - 71.6 °F 100% - 10.0 mi Calm Calm - N/A   Mostly Cloudy
10:37 PM 71.6 °F - 71.6 °F 100% - 2.5 mi Calm Calm - N/A   Overcast
10:46 PM 71.6 °F - 69.8 °F 94% - 4.0 mi Calm Calm - N/A   Mostly Cloudy
10:58 PM 72.0 °F - 70.0 °F 93% - 5.0 mi ENE 3.5 mph - N/A   Mostly Cloudy
11:06 PM 71.6 °F - 69.8 °F 94% - 5.0 mi Calm Calm - N/A   Mostly Cloudy
11:58 PM 72.0 °F - 70.0 °F 93% - 10.0 mi Calm Calm - N/A   Mostly Cloudy